Wind_Speed
7 6 5 5 5 4 5 5 5 5 5 4 4 3 3 3 4 4 5 6 6 7 8 8 9 9 10 10 10 11 12 13 14 14 13 13 12 11 10 9 8 8 7
6 5 4 4 3 3 3 3 3 3 3 3 3 3 3 3 3 3 3 4 5 6 7 8 8 9 10 10 11 11 12 14 15 15 15 15 15 14 13 12 11 10 9
5 5 4 3 2 2 2 2 2 2 2 2 2 2 2 2 2 3 3 3 4 5 6 6 7 8 9 10 10 11 11 13 15 16 17 17 17 17 16 15 14 13 12
5 4 4 3 3 2 2 2 2 1 1 1 1 2 2 2 2 2 2 3 3 3 4 5 5 7 8 9 10 10 11 12 14 15 16 17 18 19 19 18 17 16 15
5 5 5 4 4 3 2 2 1 1 0 0 1 1 1 1 1 1 2 2 1 2 3 3 4 5 6 7 8 9 10 11 12 14 16 17 18 19 20 20 19 19 18
7 7 6 5 4 4 3 2 1 1 1 1 1 1 2 2 2 2 2 2 1 1 2 3 3 4 4 5 7 7 9 10 11 12 14 16 17 19 20 21 21 20 20
8 8 7 6 5 4 3 2 2 2 1 1 1 2 2 2 2 2 2 2 2 2 2 2 3 3 4 4 5 6 7 9 10 11 12 14 16 17 18 20 21 21 22
9 9 8 7 6 5 4 3 2 2 2 2 2 2 2 2 2 2 2 2 2 3 3 3 3 3 4 4 5 6 6 7 8 9 11 13 15 16 17 19 20 21 22
10 9 9 8 7 5 5 4 3 2 2 2 2 2 1 1 2 2 2 2 3 3 3 4 4 4 4 5 5 6 6 7 8 8 9 11 13 15 17 18 20 22 23
11 10 9 8 7 6 5 4 3 2 1 1 0 0 1 1 2 2 2 3 3 3 4 4 4 4 5 5 6 6 7 8 8 9 10 10 11 13 15 17 19 21 23
11 11 10 9 8 8 6 5 4 3 3 2 2 2 2 3 3 3 4 4 4 5 5 6 6 6 6 6 7 8 8 9 9 10 11 11 12 12 13 14 16 18 21
12 12 11 10 10 9 8 7 6 6 5 5 5 5 5 5 5 6 6 6 7 7 7 7 8 8 8 8 9 9 9 10 11 11 12 13 13 14 15 15 16 17 19
13 12 12 11 11 11 10 9 9 9 9 8 8 8 8 8 8 9 9 10 10 10 10 10 10 10 10 10 11 11 11 12 12 13 13 14 15 16 16 17 18 19 20
14 13 13 13 12 12 12 12 12 12 12 12 12 12 12 12 12 12 13 13 13 13 13 13 13 13 13 13 13 13 14 14 14 14 15 16 17 17 18 19 19 20 21
15 15 15 14 14 15 14 14 14 14 14 14 14 14 15 15 15 15 16 16 16 16 16 16 16 16 16 17 16 16 17 17 17 17 17 18 18 19 20 20 21 22 23
17 17 16 17 17 17 17 17 17 17 17 17 17 17 18 18 18 19 19 19 19 19 19 19 19 19 19 20 20 20 20 20 20 20 20 20 21 21 22 22 23 23 24
18 18 18 19 19 19 19 20 20 20 20 20 20 21 21 21 21 22 22 22 22 22 22 22 22 22 22 23 23 23 23 23 23 23 23 23 23 24 24 25 25 26 26
20 20 20 20 21 21 22 22 23 23 23 23 23 23 24 24 25 25 25 25 25 25 25 25 25 25 25 26 26 26 27 27 27 27 27 27 27 27 27 27 27 28 29
21 21 22 22 23 24 24 24 25 25 25 25 25 26 26 27 28 28 29 29 29 29 29 29 29 29 29 29 29 30 30 30 30 30 30 30 30 30 30 30 30 30 31
22 23 24 25 26 26 26 27 27 27 28 28 28 29 29 30 30 31 32 32 32 32 33 32 32 33 33 33 33 33 33 33 33 34 33 33 33 33 34 33 33 33 33
24 26 26 26 27 28 29 29 29 29 30 30 31 31 32 33 33 34 35 35 35 35 35 36 36 36 36 37 37 37 37 36 36 37 37 36 36 36 37 37 37 36 36
27 28 28 29 30 31 32 33 33 33 33 33 34 34 35 36 37 37 38 38 38 39 39 39 40 39 39 41 41 41 41 40 39 40 41 39 40 39 39 40 39 39 39
29 31 32 32 33 34 34 35 36 36 36 36 36 37 37 39 40 41 41 42 42 42 42 43 43 42 42 43 45 45 45 45 43 42 44 42 43 42 42 43 43 42 42
30 31 32 34 35 34 34 35 36 36 37 38 39 40 41 42 42 43 43 44 44 44 45 45 46 45 45 46 48 48 49 49 48 47 48 47 46 46 46 46 46 46 45
31 33 34 34 35 35 36 36 36 37 38 39 40 40 41 42 42 44 45 45 45 46 47 48 49 49 49 50 52 53 53 54 52 51 52 52 50 51 50 50 49 49 48
33 34 34 33 34 35 37 38 39 39 40 41 42 42 42 43 43 45 46 47 48 49 50 51 52 53 54 55 56 57 58 58 58 56 56 57 56 57 55 53 53 53 52
Wind_Direction
256 258 265 269 271 272 271 272 275 280 280 280 281 287 301 281 267 267 271 260 253 251 248 249 247 246 243 243 244 242 239 237 237 237 238 238 237 236 235 236 237 239 238
247 248 248 254 256 262 269 266 268 277 279 275 277 283 284 280 278 273 277 266 263 259 251 249 251 247 246 245 244 245 244 241 240 240 240 240 240 238 237 237 237 239 239
229 227 229 230 230 230 236 236 243 254 265 262 271 280 285 288 286 288 287 276 266 259 249 249 255 253 249 247 249 246 246 243 242 242 242 241 240 240 239 239 238 239 240
210 207 201 190 188 180 184 201 219 233 252 265 282 286 293 312 311 302 304 290 266 256 249 249 257 259 254 250 249 249 249 248 245 244 244 243 241 241 241 240 240 240 240
199 191 181 174 172 171 170 174 172 151 122 65 9 351 355 7 354 337 328 324 292 273 261 257 263 267 260 251 247 248 250 251 249 247 247 246 243 242 242 241 242 242 242
196 189 182 182 179 177 175 171 157 134 120 106 76 57 54 52 42 25 11 359 348 325 289 274 276 268 264 255 247 250 253 254 252 250 248 247 244 242 242 241 242 242 242
192 187 182 182 180 179 179 175 159 138 128 123 107 88 73 60 48 37 25 8 358 351 337 308 288 269 265 266 257 257 260 260 256 252 250 248 245 244 244 241 241 243 242
191 187 185 185 186 187 187 182 169 154 138 119 111 104 88 59 41 31 30 21 6 356 344 329 307 285 277 276 274 268 268 270 267 261 258 253 249 248 247 244 242 243 245
192 190 190 191 194 196 195 189 179 164 145 128 116 107 80 39 16 10 11 7 3 356 342 332 319 295 284 281 278 275 274 273 274 271 267 261 256 253 251 249 246 246 246
194 196 198 199 202 207 207 202 196 189 173 166 161 91 344 339 332 333 336 337 342 340 336 328 321 312 299 291 286 283 278 275 274 272 271 267 264 260 258 254 251 250 249
200 204 207 208 212 216 217 218 219 228 239 254 270 282 295 296 294 298 302 311 319 319 318 317 314 307 299 296 291 287 284 280 276 274 272 270 269 268 265 262 258 254 251
210 213 214 216 220 224 227 231 238 246 256 266 275 281 286 286 286 289 292 297 301 306 307 304 302 301 297 294 291 289 287 283 280 277 275 273 272 271 268 265 263 259 256
217 219 221 223 227 232 237 241 247 254 261 268 273 277 279 280 281 283 286 290 292 294 295 294 293 293 292 290 289 288 287 284 281 279 277 275 274 272 270 268 265 262 259
222 225 228 231 235 240 244 248 252 257 263 268 272 275 278 279 279 281 283 285 286 288 289 289 288 288 288 287 287 287 287 286 283 280 278 276 275 274 272 270 267 265 263
228 231 236 239 243 247 250 253 256 260 263 267 270 274 277 280 280 281 282 283 283 284 284 284 284 285 285 285 284 284 284 283 281 279 277 276 275 273 272 271 269 266 265
234 238 242 245 249 251 254 256 258 261 265 268 270 273 276 278 279 280 280 281 282 282 281 281 281 281 281 281 282 282 281 280 279 278 277 275 274 273 271 270 269 268 266
240 243 247 250 252 255 258 259 261 263 266 269 271 273 275 276 277 278 279 280 281 281 281 280 280 279 278 277 277 278 278 278 278 277 276 275 274 274 272 270 269 267 266
246 248 250 251 254 257 260 262 265 266 269 271 272 274 275 276 277 278 278 279 279 280 280 280 280 279 278 277 276 275 275 275 276 276 275 275 274 273 273 271 269 267 266
250 252 254 256 258 260 262 265 267 269 270 272 273 274 275 276 277 278 278 278 279 280 280 279 279 279 278 277 276 276 275 275 275 275 275 275 274 273 272 270 269 267 266
254 256 258 259 260 263 265 266 268 270 271 272 273 275 276 276 277 278 278 278 279 280 280 280 279 279 279 278 277 276 275 275 275 275 275 274 274 273 272 271 269 267 265
260 260 261 261 263 265 267 268 271 272 273 274 275 275 276 276 277 277 277 277 278 279 279 279 279 278 278 277 277 276 275 274 274 274 274 273 273 273 272 270 269 267 266
264 265 266 267 267 268 268 271 271 273 274 273 273 274 274 275 276 277 277 277 277 278 278 278 278 277 277 276 276 276 276 275 274 273 272 272 272 272 270 269 268 268 266
269 268 267 266 267 269 270 271 271 273 274 274 273 273 274 275 276 277 277 277 278 278 278 277 277 277 276 275 275 275 275 275 274 273 272 271 271 270 269 268 267 267 267
272 272 270 268 268 271 272 272 273 273 274 272 271 271 273 274 275 275 275 275 275 276 277 277 277 277 276 275 275 275 275 275 274 273 272 271 269 268 267 266 266 265 265
276 276 274 274 273 273 272 273 273 274 273 273 273 273 274 274 274 274 274 275 275 275 275 276 277 277 276 276 275 275 275 274 274 273 272 271 269 268 266 266 265 264 263
278 278 277 277 277 275 275 275 275 275 274 276 276 276 276 276 276 276 276 276 275 275 275 276 276 276 276 276 275 275 275 274 273 272 271 271 269 268 266 265 264 263 263
Height
5885 5886 5886 5885 5885 5885 5884 5884 5884 5884 5883 5883 5883 5883 5884 5884 5884 5884 5884 5885 5885 5885 5886 5887 5887 5888 5888 5889 5890 5891 5892 5893 5894 5896 5897 5898 5900 5901 5902 5903 5903 5904 5905
5884 5884 5884 5884 5884 5884 5884 5883 5883 5883 5883 5882 5882 5883 5883 5883 5883 5883 5883 5884 5884 5884 5885 5885 5885 5886 5886 5887 5887 5888 5889 5890 5892 5893 5894 5896 5897 5898 5900 5901 5902 5903 5903
5882 5883 5883 5883 5884 5883 5883 5883 5883 5882 5882 5882 5882 5882 5882 5882 5882 5882 5882 5882 5882 5883 5883 5883 5883 5884 5884 5884 5885 5886 5887 5888 5889 5890 5891 5892 5894 5896 5897 5898 5899 5900 5902
5881 5881 5882 5883 5883 5883 5883 5883 5883 5882 5882 5882 5882 5882 5882 5882 5882 5882 5882 5881 5881 5881 5882 5882 5882 5882 5882 5882 5883 5883 5884 5885 5886 5887 5888 5889 5891 5892 5894 5895 5896 5898 5899
5880 5880 5881 5882 5882 5882 5883 5883 5883 5882 5882 5882 5881 5881 5881 5882 5882 5881 5881 5881 5880 5880 5880 5881 5881 5880 5880 5880 5880 5881 5882 5882 5883 5883 5884 5885 5887 5888 5890 5892 5893 5894 5896
5879 5880 5881 5881 5882 5882 5882 5882 5882 5882 5882 5882 5881 5881 5881 5881 5881 5881 5881 5880 5880 5880 5880 5879 5879 5879 5879 5879 5879 5879 5879 5880 5880 5880 5881 5882 5883 5884 5886 5887 5889 5890 5892
5877 5879 5880 5881 5881 5882 5882 5882 5882 5882 5882 5881 5881 5881 5881 5881 5881 5881 5880 5880 5879 5879 5879 5878 5878 5878 5878 5877 5877 5877 5877 5877 5877 5877 5878 5878 5879 5880 5882 5883 5885 5886 5888
5876 5878 5879 5880 5881 5881 5882 5882 5882 5882 5882 5881 5881 5881 5881 5881 5880 5880 5880 5880 5879 5878 5878 5878 5877 5877 5876 5876 5876 5876 5876 5875 5875 5875 5875 5875 5876 5877 5878 5879 5880 5882 5883
5875 5877 5878 5879 5880 5881 5881 5882 5882 5882 5881 5881 5881 5881 5881 5880 5880 5880 5880 5879 5879 5878 5877 5877 5876 5876 5875 5875 5874 5874 5874 5873 5873 5873 5873 5873 5873 5874 5874 5875 5876 5877 5878
5874 5875 5876 5878 5879 5879 5880 5880 5881 5881 5881 5881 5880 5880 5880 5880 5879 5879 5879 5878 5878 5877 5877 5876 5875 5874 5874 5873 5873 5872 5872 5871 5871 5871 5870 5870 5870 5871 5871 5871 5872 5873 5874
5873 5874 5875 5876 5877 5878 5879 5879 5879 5879 5879 5879 5879 5879 5878 5878 5878 5878 5877 5877 5876 5876 5875 5874 5873 5872 5872 5871 5871 5870 5870 5869 5869 5868 5868 5868 5867 5867 5867 5867 5867 5868 5869
5871 5872 5873 5874 5875 5876 5876 5877 5877 5877 5877 5877 5877 5877 5877 5876 5876 5876 5875 5874 5874 5874 5873 5872 5871 5870 5869 5869 5868 5868 5867 5866 5866 5865 5865 5864 5864 5864 5864 5863 5864 5864 5864
5869 5870 5871 5872 5873 5874 5874 5874 5874 5874 5875 5875 5875 5874 5874 5874 5873 5873 5872 5872 5871 5870 5870 5869 5868 5867 5866 5866 5865 5864 5864 5863 5862 5862 5861 5861 5860 5860 5860 5859 5859 5859 5859
5867 5868 5869 5870 5870 5871 5871 5871 5871 5871 5871 5871 5871 5871 5870 5870 5870 5869 5869 5868 5867 5867 5866 5865 5864 5863 5863 5862 5861 5860 5860 5859 5858 5858 5857 5856 5856 5855 5855 5855 5854 5854 5854
5864 5865 5866 5867 5867 5867 5868 5868 5868 5868 5868 5867 5867 5866 5866 5866 5865 5865 5864 5864 5864 5862 5862 5861 5860 5859 5858 5857 5856 5856 5855 5854 5854 5853 5852 5851 5851 5850 5850 5849 5849 5849 5849
5860 5861 5862 5863 5863 5864 5864 5864 5864 5863 5863 5863 5862 5861 5861 5860 5860 5859 5859 5858 5857 5857 5856 5855 5854 5853 5852 5851 5850 5850 5849 5848 5848 5847 5846 5845 5845 5844 5844 5843 5843 5842 5842
5857 5857 5858 5859 5859 5859 5859 5859 5859 5858 5858 5857 5857 5856 5855 5854 5854 5853 5852 5851 5851 5850 5849 5849 5848 5847 5846 5845 5844 5843 5842 5841 5840 5840 5839 5838 5838 5837 5836 5836 5835 5835 5835
5852 5853 5853 5854 5854 5854 5854 5854 5853 5853 5852 5851 5850 5850 5849 5848 5847 5846 5845 5844 5843 5842 5842 5841 5840 5839 5839 5838 5837 5836 5834 5833 5832 5832 5831 5830 5830 5829 5829 5828 5827 5827 5827
5848 5848 5848 5848 5848 5848 5847 5847 5846 5846 5845 5844 5843 5842 5841 5840 5839 5838 5837 5836 5835 5834 5834 5833 5832 5830 5830 5829 5828 5827 5826 5825 5824 5823 5822 5821 5821 5820 5820 5819 5818 5818 5818
5842 5842 5842 5842 5842 5841 5840 5839 5839 5838 5838 5837 5836 5835 5833 5832 5831 5830 5829 5828 5826 5826 5824 5824 5823 5821 5820 5818 5817 5817 5816 5815 5814 5813 5812 5811 5811 5810 5809 5809 5809 5808 5808
5836 5835 5835 5834 5834 5833 5832 5831 5830 5830 5829 5828 5827 5826 5825 5823 5822 5820 5819 5818 5816 5815 5814 5813 5812 5811 5810 5808 5806 5805 5805 5804 5803 5802 5801 5801 5800 5799 5799 5798 5797 5797 5797
5829 5827 5827 5826 5825 5824 5823 5822 5821 5820 5820 5819 5817 5816 5815 5813 5812 5810 5809 5807 5806 5805 5803 5802 5800 5799 5798 5796 5794 5793 5792 5792 5792 5791 5789 5790 5788 5788 5787 5786 5786 5785 5785
5820 5818 5817 5816 5815 5814 5813 5812 5811 5810 5809 5808 5807 5805 5804 5802 5801 5799 5797 5796 5795 5793 5791 5789 5787 5787 5785 5784 5781 5780 5779 5778 5779 5778 5776 5777 5776 5775 5774 5773 5773 5773 5773
5810 5808 5807 5806 5805 5804 5803 5802 5800 5799 5798 5796 5795 5793 5792 5790 5788 5787 5785 5784 5782 5780 5778 5775 5774 5773 5772 5770 5767 5766 5764 5764 5764 5764 5762 5762 5762 5761 5761 5760 5760 5760 5760
5801 5799 5798 5796 5794 5794 5792 5791 5789 5788 5786 5784 5782 5781 5779 5777 5775 5773 5772 5770 5769 5767 5764 5761 5760 5758 5756 5754 5752 5750 5748 5747 5747 5748 5745 5745 5746 5745 5745 5745 5745 5745 5745
5791 5789 5787 5785 5784 5782 5781 5780 5778 5776 5774 5772 5770 5768 5766 5764 5762 5759 5757 5756 5754 5752 5749 5747 5745 5742 5740 5738 5735 5732 5730 5728 5728 5729 5729 5726 5727 5725 5727 5729 5728 5728 5729